| time (UTC) | temp F | wind direction | speed knots | gust knots | rain 1hr in | rain 24hr in | rain mn in | humidity % | barometer mb |
| 20260507060929 | 49 | 234 | 0.0 | 3.5 | 0.00 | 0.21 | 0.00 | 90 | 1014.8 |
| 20260507055906 | 49 | 223 | 0.0 | 3.5 | 0.00 | 0.21 | 0.00 | 91 | 1014.7 |
| 20260507054843 | 48 | 227 | 0.0 | 2.6 | 0.00 | 0.22 | 0.00 | 91 | 1014.7 |
| 20260507053828 | 48 | 220 | 0.0 | 2.6 | 0.00 | 0.22 | 0.00 | 91 | 1014.6 |
| 20260507052809 | 48 | 238 | 0.0 | 0.9 | 0.00 | 0.22 | 0.00 | 91 | 1014.6 |
| 20260507051821 | 48 | 238 | 0.0 | 0.9 | 0.00 | 0.22 | 0.00 | 91 | 1014.5 |
| 20260507050813 | 48 | 244 | 0.0 | 0.9 | 0.00 | 0.23 | 0.00 | 91 | 1014.3 |
| 20260507045814 | 48 | 225 | 0.0 | 0.9 | 0.00 | 0.24 | 0.00 | 92 | 1014.2 |
| 20260507043706 | 48 | 224 | 0.0 | 0.9 | 0.00 | 0.27 | 0.00 | 92 | 1013.9 |
| 20260507042728 | 48 | 225 | 0.0 | 1.7 | 0.00 | 0.28 | 0.00 | 92 | 1013.9 |
| 20260507041715 | 48 | 225 | 0.0 | 1.7 | 0.00 | 0.28 | 0.00 | 92 | 1013.8 |
| 20260507035526 | 48 | 225 | 0.0 | 2.6 | 0.00 | 0.29 | 0.00 | 92 | 1013.7 |
| 20260507034528 | 48 | 231 | 0.0 | 1.7 | 0.00 | 0.29 | 0.00 | 92 | 1013.6 |
| 20260507032352 | 48 | 240 | 0.0 | 2.6 | 0.00 | 0.31 | 0.00 | 91 | 1013.6 |
| 20260507031335 | 48 | 241 | 0.0 | 2.6 | 0.00 | 0.31 | 0.00 | 92 | 1013.6 |
| 20260507030318 | 48 | 237 | 0.9 | 1.7 | 0.00 | 0.33 | 0.00 | 91 | 1013.6 |
| 20260507025308 | 48 | 244 | 0.0 | 1.7 | 0.00 | 0.33 | 0.00 | 91 | 1013.5 |
| 20260507024258 | 48 | 247 | 0.0 | 1.7 | 0.00 | 0.33 | 0.00 | 91 | 1013.5 |
| 20260507023254 | 48 | 267 | 0.0 | 0.9 | 0.00 | 0.34 | 0.00 | 91 | 1013.5 |
| 20260507022228 | 48 | 283 | 0.0 | 0.9 | 0.00 | 0.35 | 0.00 | 91 | 1013.5 |
| 20260507021245 | 47 | 283 | 0.0 | 0.0 | 0.00 | 0.35 | 0.00 | 91 | 1013.4 |
| 20260507020231 | 47 | 283 | 0.0 | 0.9 | 0.00 | 0.36 | 0.00 | 91 | 1013.3 |
| 20260507015245 | 47 | 334 | 0.0 | 2.6 | 0.00 | 0.36 | 0.00 | 91 | 1013.2 |
| 20260507014227 | 47 | 221 | 0.0 | 2.6 | 0.00 | 0.36 | 0.00 | 92 | 1013.1 |
| 20260507013211 | 47 | 275 | 0.0 | 0.9 | 0.00 | 0.37 | 0.00 | 92 | 1013.1 |
| 20260507012209 | 47 | 325 | 0.0 | 0.9 | 0.00 | 0.37 | 0.00 | 92 | 1013.1 |
| 20260507004943 | 47 | 216 | 0.0 | 2.6 | 0.00 | 0.41 | 0.00 | 92 | 1012.8 |
| 20260507003950 | 47 | 221 | 0.0 | 2.6 | 0.00 | 0.42 | 0.00 | 93 | 1012.8 |
| 20260507003012 | 48 | 221 | 0.0 | 1.7 | 0.00 | 0.44 | 0.00 | 93 | 1012.8 |
| 20260507000852 | 47 | 232 | 0.0 | 1.7 | 0.00 | 0.46 | 0.00 | 93 | 1012.7 |
| 20260506235847 | 47 | 240 | 0.0 | 1.7 | 0.00 | 0.47 | 0.00 | 93 | 1012.7 |
| 20260506234852 | 47 | 254 | 0.0 | 0.9 | 0.00 | 0.48 | 0.00 | 94 | 1012.8 |
| 20260506233828 | 47 | 279 | 0.0 | 0.9 | 0.00 | 0.48 | 0.00 | 93 | 1012.8 |
| 20260506231726 | 47 | 337 | 0.0 | 0.0 | 0.00 | 0.51 | 0.00 | 93 | 1012.7 |
| 20260506230724 | 47 | 337 | 0.0 | 0.9 | 0.00 | 0.52 | 0.00 | 94 | 1012.6 |
| 20260506225719 | 47 | 19 | 0.0 | 0.9 | 0.00 | 0.53 | 0.00 | 94 | 1012.6 |
| 20260506224721 | 47 | 319 | 0.0 | 0.9 | 0.00 | 0.53 | 0.00 | 94 | 1012.6 |
| 20260506223700 | 47 | 5 | 0.0 | 1.7 | 0.00 | 0.55 | 0.00 | 94 | 1012.4 |
| 20260506222644 | 47 | 338 | 0.0 | 2.6 | 0.00 | 0.55 | 0.00 | 94 | 1012.4 |
| 20260506221633 | 47 | 304 | 0.0 | 3.5 | 0.00 | 0.57 | 0.00 | 94 | 1012.2 |
| 20260506214358 | 47 | 351 | 0.9 | 2.6 | 0.00 | 0.59 | 0.59 | 94 | 1011.9 |
| 20260506213420 | 48 | 289 | 0.0 | 2.6 | 0.00 | 0.59 | 0.59 | 94 | 1011.8 |
| 20260506212348 | 48 | 26 | 0.0 | 1.7 | 0.00 | 0.60 | 0.59 | 94 | 1011.7 |
| 20260506211330 | 48 | 355 | 0.9 | 5.2 | 0.00 | 0.60 | 0.59 | 94 | 1011.7 |
| 20260506210338 | 48 | 337 | 0.9 | 5.2 | 0.00 | 0.60 | 0.59 | 94 | 1011.6 |
| 20260506205306 | 48 | 355 | 0.0 | 3.5 | 0.00 | 0.61 | 0.59 | 94 | 1011.6 |
| 20260506204325 | 48 | 0 | 0.0 | 3.5 | 0.00 | 0.61 | 0.59 | 95 | 1011.6 |
| 20260506203340 | 48 | 9 | 0.0 | 3.5 | 0.00 | 0.62 | 0.59 | 95 | 1011.7 |
| 20260506202323 | 48 | 0 | 0.0 | 3.5 | 0.00 | 0.62 | 0.59 | 95 | 1011.7 |
| 20260506201254 | 48 | 351 | 0.0 | 1.7 | 0.00 | 0.62 | 0.59 | 95 | 1011.6 |
| 20260506200301 | 48 | 329 | 0.0 | 0.9 | 0.00 | 0.62 | 0.59 | 95 | 1011.4 |
| 20260506195311 | 48 | 340 | 0.0 | 3.5 | 0.00 | 0.62 | 0.59 | 95 | 1011.3 |
| 20260506194303 | 48 | 309 | 0.0 | 3.5 | 0.00 | 0.63 | 0.59 | 95 | 1011.3 |
| 20260506193240 | 48 | 246 | 0.0 | 2.6 | 0.00 | 0.63 | 0.59 | 95 | 1011.2 |
| 20260506192211 | 48 | 344 | 0.0 | 2.6 | 0.00 | 0.63 | 0.59 | 95 | 1011.1 |
| 20260506191228 | 48 | 317 | 0.9 | 6.1 | 0.00 | 0.63 | 0.59 | 95 | 1011.0 |
| 20260506190213 | 48 | 282 | 0.0 | 6.1 | 0.00 | 0.64 | 0.59 | 94 | 1010.8 |
| 20260506185219 | 48 | 228 | 0.0 | 2.6 | 0.00 | 0.64 | 0.59 | 95 | 1010.8 |
| 20260506184233 | 48 | 219 | 0.0 | 2.6 | 0.00 | 0.64 | 0.59 | 95 | 1010.7 |
| 20260506183209 | 48 | 294 | 0.0 | 2.6 | 0.00 | 0.64 | 0.59 | 94 | 1010.6 |
| 20260506182216 | 48 | 336 | 0.0 | 0.9 | 0.00 | 0.64 | 0.59 | 94 | 1010.5 |
| 20260506181208 | 48 | 261 | 0.0 | 2.6 | 0.00 | 0.64 | 0.59 | 94 | 1010.4 |
| 20260506180231 | 48 | 324 | 0.0 | 2.6 | 0.00 | 0.64 | 0.59 | 94 | 1010.4 |
| 20260506175225 | 48 | 345 | 0.0 | 3.5 | 0.00 | 0.64 | 0.59 | 94 | 1010.2 |
| 20260506174235 | 48 | 238 | 0.0 | 3.5 | 0.00 | 0.64 | 0.59 | 94 | 1010.1 |
| 20260506173222 | 48 | 351 | 0.0 | 3.5 | 0.00 | 0.64 | 0.59 | 94 | 1010.0 |
| 20260506172236 | 48 | 327 | 0.9 | 4.3 | 0.00 | 0.64 | 0.59 | 94 | 1009.8 |
| 20260506171237 | 48 | 326 | 0.9 | 4.3 | 0.00 | 0.64 | 0.59 | 94 | 1009.8 |
| 20260506170210 | 49 | 9 | 0.0 | 4.3 | 0.00 | 0.64 | 0.59 | 94 | 1009.8 |
| 20260506165206 | 49 | 295 | 0.0 | 3.5 | 0.00 | 0.63 | 0.58 | 94 | 1009.8 |
| 20260506164218 | 49 | 44 | 0.0 | 3.5 | 0.00 | 0.63 | 0.58 | 94 | 1009.7 |
| 20260506163240 | 49 | 351 | 0.9 | 5.2 | 0.00 | 0.63 | 0.58 | 93 | 1009.7 |
| 20260506162249 | 49 | 278 | 0.9 | 5.2 | 0.00 | 0.63 | 0.58 | 92 | 1009.7 |
| 20260506161232 | 49 | 256 | 0.9 | 3.5 | 0.00 | 0.63 | 0.58 | 93 | 1009.6 |
| 20260506160205 | 49 | 60 | 0.9 | 4.3 | 0.00 | 0.63 | 0.58 | 93 | 1009.5 |
| 20260506155142 | 49 | 5 | 0.9 | 4.3 | 0.00 | 0.63 | 0.58 | 93 | 1009.3 |
| 20260506154107 | 49 | 335 | 0.0 | 4.3 | 0.00 | 0.63 | 0.58 | 93 | 1009.3 |
| 20260506153049 | 49 | 310 | 0.9 | 4.3 | 0.00 | 0.63 | 0.58 | 93 | 1009.3 |
| 20260506152036 | 49 | 337 | 0.9 | 4.3 | 0.00 | 0.63 | 0.58 | 93 | 1009.4 |
| 20260506145900 | 49 | 320 | 0.9 | 4.3 | 0.00 | 0.63 | 0.58 | 93 | 1009.2 |
| 20260506144837 | 49 | 265 | 0.9 | 3.5 | 0.00 | 0.63 | 0.58 | 93 | 1009.2 |
| 20260506143854 | 49 | 217 | 0.0 | 4.3 | 0.00 | 0.63 | 0.58 | 94 | 1009.2 |
| 20260506141732 | 50 | 9 | 0.0 | 3.5 | 0.00 | 0.63 | 0.58 | 94 | 1009.0 |
| 20260506140738 | 49 | 338 | 0.9 | 3.5 | 0.00 | 0.63 | 0.58 | 94 | 1009.1 |
| 20260506135712 | 50 | 271 | 0.9 | 4.3 | 0.00 | 0.63 | 0.58 | 94 | 1009.1 |
| 20260506134654 | 50 | 338 | 0.9 | 5.2 | 0.03 | 0.63 | 0.58 | 95 | 1009.0 |
| 20260506132504 | 49 | 327 | 0.9 | 6.1 | 0.06 | 0.62 | 0.57 | 94 | 1009.0 |
| 20260506131449 | 49 | 275 | 1.7 | 6.1 | 0.04 | 0.62 | 0.56 | 93 | 1009.0 |
| 20260506130428 | 50 | 260 | 1.7 | 5.2 | 0.04 | 0.61 | 0.55 | 94 | 1008.8 |
| 20260506125359 | 50 | 344 | 0.9 | 3.5 | 0.03 | 0.60 | 0.55 | 95 | 1008.7 |
| 20260506123308 | 50 | 328 | 0.9 | 7.8 | 0.03 | 0.59 | 0.53 | 94 | 1008.6 |
| 20260506122240 | 50 | 12 | 0.9 | 7.8 | 0.04 | 0.58 | 0.52 | 94 | 1008.4 |
| 20260506121222 | 50 | 351 | 1.7 | 5.2 | 0.03 | 0.57 | 0.51 | 94 | 1008.4 |
| 20260506120159 | 50 | 17 | 0.9 | 5.2 | 0.04 | 0.56 | 0.51 | 94 | 1008.4 |
| 20260506115223 | 50 | 349 | 0.0 | 7.8 | 0.04 | 0.55 | 0.50 | 94 | 1008.3 |
| 20260506114233 | 50 | 334 | 0.9 | 7.8 | 0.04 | 0.55 | 0.49 | 93 | 1008.2 |
| 20260506113233 | 51 | 9 | 0.9 | 4.3 | 0.03 | 0.54 | 0.48 | 94 | 1008.2 |
| 20260506111107 | 51 | 217 | 0.9 | 4.3 | 0.03 | 0.52 | 0.47 | 94 | 1008.1 |
| 20260506104936 | 51 | 355 | 0.0 | 4.3 | 0.03 | 0.51 | 0.45 | 94 | 1008.0 |
| 20260506103936 | 51 | 233 | 0.9 | 3.5 | 0.04 | 0.50 | 0.44 | 95 | 1008.0 |
| 20260506102909 | 51 | 349 | 0.9 | 3.5 | 0.00 | 0.49 | 0.44 | 94 | 1007.9 |
| 20260506101911 | 51 | 21 | 0.0 | 3.5 | 0.00 | 0.48 | 0.43 | 95 | 1007.8 |
| 20260506100935 | 50 | 229 | 0.9 | 4.3 | 0.00 | 0.48 | 0.43 | 94 | 1007.7 |
| 20260506095914 | 50 | 355 | 0.0 | 4.3 | 0.00 | 0.48 | 0.42 | 94 | 1007.7 |
| 20260506094900 | 50 | 342 | 0.0 | 4.3 | 0.03 | 0.48 | 0.42 | 95 | 1007.6 |
| 20260506093900 | 50 | 335 | 0.0 | 3.5 | 0.03 | 0.48 | 0.42 | 95 | 1007.6 |
| 20260506092911 | 50 | 249 | 0.0 | 3.5 | 0.03 | 0.47 | 0.41 | 95 | 1007.6 |
| 20260506091928 | 50 | 315 | 0.0 | 3.5 | 0.00 | 0.46 | 0.40 | 94 | 1007.4 |
| 20260506090951 | 50 | 14 | 0.9 | 3.5 | 0.00 | 0.46 | 0.40 | 94 | 1007.4 |
| 20260506085936 | 50 | 338 | 0.9 | 4.3 | 0.00 | 0.45 | 0.40 | 94 | 1007.3 |
| 20260506084940 | 50 | 349 | 0.9 | 4.3 | 0.00 | 0.45 | 0.40 | 94 | 1007.2 |
| 20260506083938 | 50 | 336 | 0.9 | 2.6 | 0.00 | 0.45 | 0.40 | 95 | 1007.1 |
| 20260506082956 | 50 | 332 | 0.0 | 2.6 | 0.00 | 0.45 | 0.40 | 95 | 1007.0 |
| 20260506081939 | 50 | 325 | 0.0 | 2.6 | 0.00 | 0.45 | 0.40 | 95 | 1006.9 |
| 20260506072730 | 50 | 313 | 0.0 | 2.6 | 0.00 | 0.44 | 0.39 | 95 | 1006.6 |
| 20260506071752 | 50 | 306 | 0.0 | 3.5 | 0.00 | 0.44 | 0.38 | 95 | 1006.6 |
| 20260506070751 | 50 | 10 | 0.9 | 3.5 | 0.00 | 0.44 | 0.38 | 95 | 1006.6 |